STARLINK-2151, 48556

Orbit data source: Space-Track

STARLINK-2151, 48556 is a payload satellite owned by SpaceX/Seattle (US) in LEO that was launched on Sat, 15 May 2021 UTC via an FALCON 9 launch vehicle from the Air Force Eastern Test Range (AFETR). Payload-class satellites include a variety of spacecraft equipped with specific instruments for various scientific and technological missions. These include communications satellites like Starlink; space stations such as the ISS; scientific satellites like the Hubble; Earth observation satellites from companies like Planet Labs, Umbra, and HawkEye 360; GPS; miniature CubeSats for education and research; and military/defense satellites.

Loading next visibility...
Identifier
48556, 2021-041D
Orbit
LEO
Country
Flag of USUS
Related business
Manufacturer
SpaceX/Seattle
Mission
Operational Commercial Communications
Bus & Motor
STARLINK, Unknown motor
Mass
260 kg wet, ~248 kg dry
Launch date (UTC)
2021-05-15 (5 years ago)
Launch vehicle
FALCON 9
Launch site
Air Force Eastern Test Range (AFETR)
Object type
Payload
Rocket body
Debris
Shape & HBR
Box + 1 Pan, 10.1 m
Radar Cross Section
13.562 m², Large (>1 m²)

Expand to show TLE details & history
Last TLE update: 16 hours ago

TLE from 16 hours ago
0 STARLINK-2151
1 48556U 21041D   25349.77472882  .00001543  00000-0  12247-3 0  9996
2 48556  53.0547 158.3290 0001381  84.8650 275.2496 15.06400674252418
Epoch: 2025-12-15T18:35Z
TLE epoch observation values (Epoch: 2025-12-15T18:35:36.570Z)
Latitude
-0.00005°
Longitude
154.75813°
Altitude
548.001 km
Speed
7.589 km/s
True Right ascension
10h 33m 18s
True Declination
0° 00' 00"
Sunlit
Object was in daylight at epoch
Visualization orbit readout
Latitude
Unknown
Longitude
Unknown
Altitude
Unknown
Speed
Unknown
Apparent Right ascension
Unknown
Apparent Declination
Unknown
Sunlit
N/A
Visualization observer readout
Local Sidereal Time
09:24:32
Azimuth
Unknown
Elevation
Unknown
Doppler factor
Unknown
Orbital elements
Apogee altitude
548.437 km
Perigee altitude
546.524 km
Semi-major axis
6,925.617 km
Eccentricity
0.00014
Inclination
53.0547°
RAAN
158.329°
Arg. of periapsis
84.865°
True anomaly
275.23384°
Mean anomaly
275.2496°
Eccentric anomaly
275.24172°
Mean motion
3.76578 °/min
Orbital period
95.6 mins
BSTAR
0.00012247
Loading maneuver chart data...
Computing Atmospheric mass density...
Loading historical data...
Loading historical data...
Loading historical data...
Loading historical data...
Loading historical data...
Loading historical data...
Loading historical data...

Documentation

Showing up to 5 results
|